TimeEST,TemperatureF,Dew PointF,Humidity,Sea Level PressureIn,VisibilityMPH,Wind Direction,Wind SpeedMPH,Gust SpeedMPH,PrecipitationIn,Events,Conditions,WindDirDegrees,DateUTC
12:14 AM,28.0,22.1,78,30.33,10.0,SE,5.8,-,N/A,,Clear,140,2012-12-06 05:14:00
12:34 AM,28.0,22.1,78,30.33,10.0,SE,5.8,-,N/A,,Clear,130,2012-12-06 05:34:00
12:54 AM,28.2,22.1,78,30.32,10.0,SE,6.9,-,N/A,,Clear,140,2012-12-06 05:54:00
1:14 AM,27.9,22.1,79,30.30,10.0,SE,4.6,-,N/A,,Clear,140,2012-12-06 06:14:00
1:34 AM,28.0,22.1,78,30.30,10.0,SE,3.5,-,N/A,,Clear,140,2012-12-06 06:34:00
1:54 AM,28.2,22.1,78,30.30,10.0,SE,3.5,-,N/A,,Clear,140,2012-12-06 06:54:00
2:14 AM,28.6,22.3,77,30.29,10.0,SSE,6.9,-,N/A,,Clear,150,2012-12-06 07:14:00
2:34 AM,28.9,22.8,78,30.30,10.0,SSE,4.6,-,N/A,,Clear,160,2012-12-06 07:34:00
2:54 AM,29.3,22.8,77,30.29,10.0,SE,6.9,-,N/A,,Clear,140,2012-12-06 07:54:00
3:14 AM,29.3,23.0,77,30.29,10.0,SE,4.6,-,N/A,,Clear,140,2012-12-06 08:14:00
3:34 AM,29.5,23.0,77,30.29,10.0,SSE,4.6,-,N/A,,Clear,150,2012-12-06 08:34:00
3:54 AM,29.7,23.2,77,30.29,10.0,South,3.5,-,N/A,,Clear,170,2012-12-06 08:54:00
4:14 AM,29.7,23.4,77,30.29,10.0,SSE,4.6,-,N/A,,Clear,160,2012-12-06 09:14:00
4:34 AM,29.3,23.7,80,30.29,10.0,South,3.5,-,N/A,,Clear,180,2012-12-06 09:34:00
4:54 AM,29.3,23.5,79,30.28,10.0,South,3.5,-,N/A,,Clear,180,2012-12-06 09:54:00
5:14 AM,29.3,23.7,80,30.27,10.0,SSE,4.6,-,N/A,,Clear,160,2012-12-06 10:14:00
5:34 AM,29.1,23.9,81,30.26,10.0,SE,3.5,-,N/A,,Clear,140,2012-12-06 10:34:00
5:54 AM,29.3,23.9,80,30.25,10.0,SSE,5.8,-,N/A,,Clear,150,2012-12-06 10:54:00
6:14 AM,28.9,23.7,81,30.24,10.0,SSE,3.5,-,N/A,,Clear,150,2012-12-06 11:14:00
6:34 AM,28.9,23.9,81,30.23,10.0,SSE,6.9,-,N/A,,Clear,150,2012-12-06 11:34:00
6:54 AM,28.9,23.7,81,30.22,10.0,SSE,6.9,-,N/A,,Clear,150,2012-12-06 11:54:00
7:14 AM,29.7,23.9,79,30.22,10.0,SSE,8.1,-,N/A,,Clear,150,2012-12-06 12:14:00
7:34 AM,29.7,23.9,79,30.21,10.0,SSE,8.1,-,N/A,,Clear,150,2012-12-06 12:34:00
7:54 AM,29.8,24.4,80,30.21,10.0,SE,6.9,-,N/A,,Clear,140,2012-12-06 12:54:00
8:14 AM,30.0,24.8,81,30.20,10.0,SSE,8.1,-,N/A,,Scattered Clouds,160,2012-12-06 13:14:00
8:34 AM,30.0,24.8,81,30.20,10.0,South,3.5,-,N/A,,Clear,170,2012-12-06 13:34:00
8:48 AM,30.2,25.2,82,30.20,10.0,South,3.5,-,N/A,,Clear,180,2012-12-06 13:48:00
9:15 AM,30.4,25.2,81,30.20,10.0,South,3.5,-,N/A,,Clear,180,2012-12-06 14:15:00
9:35 AM,30.9,25.5,80,30.18,10.0,South,9.2,-,N/A,,Clear,170,2012-12-06 14:35:00
9:54 AM,31.5,25.7,79,30.19,10.0,South,6.9,-,N/A,,Clear,180,2012-12-06 14:54:00
10:14 AM,31.8,26.2,80,30.17,10.0,South,11.5,16.1,N/A,,Scattered Clouds,180,2012-12-06 15:14:00
10:34 AM,32.0,26.6,80,30.17,10.0,South,9.2,-,N/A,,Clear,170,2012-12-06 15:34:00
10:54 AM,32.4,26.6,79,30.17,10.0,South,4.6,-,N/A,,Clear,190,2012-12-06 15:54:00
11:14 AM,33.1,27.0,78,30.15,10.0,South,6.9,-,N/A,,Scattered Clouds,190,2012-12-06 16:14:00
11:34 AM,33.6,27.1,77,30.13,10.0,South,8.1,16.1,N/A,,Clear,170,2012-12-06 16:34:00
11:54 AM,33.8,27.3,77,30.13,10.0,SSW,10.4,18.4,N/A,,Scattered Clouds,210,2012-12-06 16:54:00
12:14 PM,34.5,27.1,74,30.11,10.0,SSW,8.1,16.1,N/A,,Scattered Clouds,200,2012-12-06 17:14:00
12:34 PM,34.9,27.0,73,30.10,10.0,SSW,12.7,17.3,N/A,,Scattered Clouds,200,2012-12-06 17:34:00
12:54 PM,35.6,26.8,70,30.08,10.0,SSW,5.8,16.1,N/A,,Clear,200,2012-12-06 17:54:00
1:14 PM,36.5,27.0,68,30.07,10.0,SSW,11.5,18.4,N/A,,Clear,200,2012-12-06 18:14:00
1:34 PM,36.5,27.0,68,30.07,10.0,SSW,8.1,-,N/A,,Clear,200,2012-12-06 18:34:00
1:55 PM,36.7,26.6,67,30.05,10.0,South,10.4,-,N/A,,Clear,180,2012-12-06 18:55:00
2:14 PM,36.7,26.4,66,30.03,10.0,South,11.5,-,N/A,,Scattered Clouds,180,2012-12-06 19:14:00
2:34 PM,37.0,26.6,66,30.02,10.0,South,10.4,-,N/A,,Mostly Cloudy,170,2012-12-06 19:34:00
2:55 PM,37.6,26.4,64,30.03,10.0,SSW,8.1,-,N/A,,Overcast,200,2012-12-06 19:55:00
3:14 PM,37.6,26.8,65,30.02,10.0,South,5.8,-,N/A,,Overcast,190,2012-12-06 20:14:00
3:34 PM,37.6,26.8,65,30.00,10.0,South,9.2,-,N/A,,Overcast,170,2012-12-06 20:34:00
3:55 PM,37.6,26.8,65,29.99,10.0,SSE,9.2,-,N/A,,Overcast,160,2012-12-06 20:55:00
4:14 PM,37.8,27.1,66,29.99,10.0,South,4.6,-,N/A,,Mostly Cloudy,180,2012-12-06 21:14:00
4:34 PM,37.9,27.3,66,29.96,10.0,SE,6.9,-,N/A,,Mostly Cloudy,140,2012-12-06 21:34:00
4:55 PM,38.3,27.5,65,29.97,10.0,South,8.1,-,N/A,,Overcast,180,2012-12-06 21:55:00
5:14 PM,37.9,27.5,66,29.97,10.0,SSE,5.8,-,N/A,,Overcast,160,2012-12-06 22:14:00
5:28 PM,37.6,27.5,67,29.97,10.0,South,4.6,-,N/A,,Mostly Cloudy,180,2012-12-06 22:28:00
5:55 PM,37.4,27.5,67,29.96,10.0,SSE,5.8,-,N/A,,Mostly Cloudy,160,2012-12-06 22:55:00
6:14 PM,37.4,27.7,68,29.96,10.0,SSE,6.9,-,N/A,,Mostly Cloudy,160,2012-12-06 23:14:00
6:34 PM,37.4,28.0,69,29.95,10.0,South,6.9,-,N/A,,Overcast,170,2012-12-06 23:34:00
6:54 PM,37.4,28.2,69,29.95,10.0,South,6.9,-,N/A,,Overcast,180,2012-12-06 23:54:00
7:14 PM,37.4,28.4,70,29.95,10.0,South,6.9,-,N/A,,Overcast,180,2012-12-07 00:14:00
7:35 PM,37.4,29.1,72,29.94,10.0,South,6.9,-,N/A,,Overcast,180,2012-12-07 00:35:00
7:55 PM,37.6,29.1,72,29.95,10.0,SW,5.8,-,N/A,,Overcast,220,2012-12-07 00:55:00
8:14 PM,37.4,30.0,75,29.96,10.0,SW,3.5,-,N/A,,Overcast,230,2012-12-07 01:14:00
8:35 PM,37.4,30.4,76,29.95,10.0,SSW,3.5,-,N/A,,Overcast,200,2012-12-07 01:35:00
8:55 PM,37.0,31.1,79,29.95,10.0,SSW,3.5,-,N/A,,Drizzle,200,2012-12-07 01:55:00
9:35 PM,37.4,31.1,78,29.94,10.0,SSE,5.8,-,N/A,,Overcast,160,2012-12-07 02:35:00
9:54 PM,37.2,31.3,79,29.92,10.0,SSE,4.6,-,N/A,,Overcast,150,2012-12-07 02:54:00
10:14 PM,37.4,31.6,80,29.92,10.0,South,5.8,-,N/A,,Overcast,180,2012-12-07 03:14:00
10:35 PM,37.8,32.0,80,29.91,10.0,South,4.6,-,N/A,,Light Drizzle,180,2012-12-07 03:35:00
10:54 PM,37.6,32.0,80,29.91,10.0,South,5.8,-,N/A,,Overcast,190,2012-12-07 03:54:00
11:14 PM,37.8,32.0,80,29.90,10.0,South,6.9,-,N/A,,Overcast,180,2012-12-07 04:14:00
11:35 PM,38.1,32.0,79,29.91,10.0,South,8.1,-,N/A,,Overcast,190,2012-12-07 04:35:00
11:54 PM,38.3,32.2,79,29.91,10.0,South,6.9,-,N/A,,Overcast,190,2012-12-07 04:54:00